Regional Weather Roundup
Issued by NWS Portland, ME

Current Version | Previous Version | Text Only | Print | Product List | Glossary Off
Versions: 1 2 3 4 5 6 7 8 9 10 11 12 13 14 15 16 17 18 19 20 21 22 23 24 25 26 27 28 29 30 31 32 33 34 35 36 37 38 39 40 41 42 43 44 45 46 47 48 49 50
000 ASUS41 KGYX 251910 RWRGYX WEATHER ROUNDUP FOR MAINE AND NEW HAMPSHIRE NATIONAL WEATHER SERVICE GRAY ME 300 PM EDT TUE APR 25 2017 MEZ002-005-006-010-012-015-018-020-021-024-026-027-029-252000- MAINE CITY SKY/WX TMP DP RH WIND PRES REMARKS PORTLAND CLOUDY 46 38 73 E14 30.35F SANFORD LGT RAIN 44 41 89 E12G17 30.33S FOG BAR HARBOR CLOUDY 47 33 58 E8 30.40F WISCASSET CLOUDY 50 37 61 E12G17 30.37F ROCKLAND CLOUDY 49 35 58 E14 30.37F FRYEBURG CLOUDY 47 43 86 NE6 30.34F LEWISTONAUBURN CLOUDY 48 39 71 E7 30.35F AUGUSTA LGT RAIN 49 35 58 E7 30.35F WATERVILLE CLOUDY 49 35 58 VRB5 30.34F BANGOR LGT RAIN 52 35 52 S10 30.38F GREENVILLE N/A 51 29 42 S8 30.31F MILLINOCKET PTSUNNY 55 28 35 S5 30.37F HOULTON CLOUDY 56 24 29 S9 30.36F PRESQUE ISLE MOSUNNY 53 22 29 SE3 30.37F FRENCHVILLE CLOUDY 47 16 29 SE10 30.35F CARIBOU CLOUDY 51 23 33 S10 30.36F $$ NHZ002-005-008-009-011-012-014-252000- NEW HAMPSHIRE CITY SKY/WX TMP DP RH WIND PRES REMARKS PORTSMOUTH LGT RAIN 44 41 90 NE18G25 30.29F FOG ROCHESTER LGT RAIN 45 39 79 NE10G17 30.30F NASHUA LGT RAIN 47 43 86 NE8 30.27S FOG MANCHESTER LGT RAIN 47 40 76 E12G20 30.26S CONCORD CLOUDY 49 41 74 E12 30.28F PLYMOUTH CLOUDY 48 40 75 E10 30.29S BERLIN LGT RAIN 48 40 73 E6 30.30F WHITEFIELD LGT RAIN 50 43 77 CALM 30.25F JAFFREY LGT RAIN 47 44 90 NE8 30.23S KEENE CLOUDY 50 42 74 N12 30.22F LEBANON CLOUDY 49 40 71 VRB6 30.25F MT WASHINGTON FRZ RAIN 30 30 100 SE39 N/A VSB 1/8 WCI 13 $$ VTZ005-007-008-252000- VERMONT CITY SKY/WX TMP DP RH WIND PRES REMARKS ST JOHNSBURY N/A 53 46 77 MISG 30.22F MONTPELIER LGT RAIN 49 41 74 S9 30.27F BURLINGTON LGT RAIN 54 39 57 S13 30.19F $$ MAZ007-012-024-CTZ003-RIZ002-NYZ038-NYZ072-252000- SOUTHERN NEW ENGLAND AND NY CITY SKY/WX TMP DP RH WIND PRES REMARKS BOSTON RAIN 46 45 96 NE18G26 30.24F FOG WORCESTER LGT RAIN 45 42 89 NE8G21 30.19S NANTUCKET LGT RAIN 51 49 92 E21G30 30.12F FOG PROVIDENCE RAIN 50 49 96 NE15 30.18F FOG HARTFORD RAIN 53 49 86 NE14 30.15R FOG ALBANY CLOUDY 53 47 79 N7 30.14F NEW YORK CITY CLOUDY 54 51 90 NE22 30.00F $$ ANZ081-ANZ082-ANZ150-NHZ014-MEZ023>029-252000- COASTAL MARINE OBSERVATIONS STATION/POSITION TIME TEMP WIND PRES WAVE AIR SEA DIR/SP/G HT/PER (UTC) (F) (DEG/KT/KT) (MB) (FT/S) MOUNT DESERT ROC 1900 40 1028.5F MATINICUS ROCK 1800 42 70/ 24/ 27 1027.2F ISLE OF SHOALS 1800 43 40/ 21/ 24 1025.6F JEFFREYS LEDGE 1806 44 N/A 5/ 5 CASHES LEDGE BUO 1850 43 43 1026.4F 4/ 5 GEORGES BANK BUO 1750 47 42 1025.0 5/ 5 $$ .............KEY.............. WCI - WIND CHILL TC - TEMPERATURE IN CELSIUS VSB - VISIBILITY IN MILES HX - HEAT INDEX FAIR- INDICATES FEW OR NO CLOUDS BELOW 12,000 FT, WITH NO SIGNIFICANT WEATHER AND/OR OBSTRUCTIONS TO VISIBILITY.

USA.gov is the U.S. government's official web portal to all federal, state and local government web resources and services.